User: anonymous   Login
Location: Bay Ridge
(40.6340°N, 74.0146°W)
Time: 01:28:18
(UTC+00:00)
Language:

Shenzhou-11 Module - Orbit

View from above orbital plane
View from above orbital plane
View from above satellite
View from above satellite

Ground track
Ground track

The orbit data is extracted from the following two-line orbital elements,

1 41868U 16061G   20018.43870659 +.00020715 +00000-0 +77398-4 0  9997
2 41868 042.7922 001.3136 0009151 142.1315 354.8216 15.87457369181994
Epoch (UTC): 18 January 2020 10:31:44
Eccentricity: 0.0009151
inclination: 42.7922°
perigee height: 303 km
apogee height: 315 km
right ascension of ascending node: 1.3136°
argument of perigee: 142.1315°
revolutions per day: 15.87457369
mean anomaly at epoch: 354.8216°
orbit number at epoch: 18199

The dashed part of the orbit path shows where the satellite is in the earth's shadow,  

DLR